Weather Service Report


808 
ASUS44 KLZK 291105
RWRLZK

WEATHER ROUNDUP FOR ARKANSAS
NATIONAL WEATHER SERVICE LITTLE ROCK AR
600 AM CDT SUN MAR 29 2015

NOTE: "FAIR" INDICATES FEW OR NO CLOUDS BELOW 12,000 FEET WITH NO
SIGNIFICANT WEATHER AND/OR OBSTRUCTIONS TO VISIBILITY.

ARZ001-003-010-029-291200-
NORTHWEST ARKANSAS
  
CITY           SKY/WX    TMP DP  RH WIND       PRES   REMARKS
FAYETTEVILLE   CLEAR     43  34  70 S12       30.05F                  
FORT SMITH     CLEAR     38  33  82 E13G21    30.11F                  
HARRISON       CLEAR     36  28  73 SE16      30.09F                  
BENTONVILLE    CLEAR     43  30  61 S15       30.03F                  
ROGERS         CLEAR     42  33  70 SE12      30.03F                  
SILOAM SPGS    CLEAR     43  30  61 SE14      30.03F                  
HIGHFILL       CLEAR     42  34  73 SE10      30.02F                  
SPRINGDALE     CLEAR     41  32  70 SE9       30.06                   
$$

ARZ004-005-016-291200-
NORTH CENTRAL ARKANSAS
  
CITY           SKY/WX    TMP DP  RH WIND       PRES   REMARKS
BATESVILLE     CLEAR     34  27  75 E5        30.22S WCI  30          
FLIPPIN        CLEAR     30  25  80 CALM      30.16S                  
MTN HOME       CLEAR     32  28  85 SE6       30.15F WCI  26          
$$

ARZ040-041-291200-
WEST CENTRAL ARKANSAS
  
CITY           SKY/WX    TMP DP  RH WIND       PRES   REMARKS
MENA           CLEAR     37  34  87 CALM      30.14F                  
MOUNT IDA      CLEAR     38  32  79 CALM      30.13F                  
$$

ARZ009-017-025-026-028-291200-
NORTHEAST ARKANSAS
  
CITY           SKY/WX    TMP DP  RH WIND       PRES   REMARKS
CORNING          N/A     32  30  93 SE5       30.25R WCI  27          
JONESBORO      CLEAR     32  30  92 CALM      30.24F                  
NEWPORT        CLEAR     35  32  89 SE6       30.24F WCI  30          
BLYTHEVILLE    CLEAR     35  29  78 SE8       30.25S WCI  29          
$$

ARZ022-023-033-042-044-291200-
CENTRAL ARKANSAS
  
CITY           SKY/WX    TMP DP  RH WIND       PRES   REMARKS
LITTLE ROCK    MOCLDY    41  32  70 E8        30.20F                  
N LITTLE ROCK    N/A     37  35  92 E6        30.20F                  
JACKSONVILLE   PTCLDY    33  31  94 NE2       30.20F                  
SEARCY         CLEAR     31  30  96 CALM      30.24F                  
HOT SPRINGS    CLEAR     39  32  76 E7        30.17F                  
RUSSELLVILLE   CLEAR     36  32  85 CALM      30.19F                  
CLINTON        FAIR      30  30 100 CALM      30.22F FOG              
$$

ARZ036-291200-
EAST ARKANSAS
  
CITY           SKY/WX    TMP DP  RH WIND       PRES   REMARKS
WEST MEMPHIS   CLEAR     34  28  79 SE6       30.24F WCI  29          
$$

ARZ050-053-066-070-073-291200-
SOUTHWEST ARKANSAS
  
CITY           SKY/WX    TMP DP  RH WIND       PRES   REMARKS
ARKADELPHIA    FAIR      39  36  89 NE5       30.19F                  
CAMDEN         MIX PCPN  37  32  81 CALM      30.18S                  
TEXARKANA      CLEAR     41  35  79 E3        30.14S                  
EL DORADO      PTCLDY    41  35  79 E7        30.17S                  
DE QUEEN       CLEAR     40  33  76 E8        30.13F                  
$$

ARZ056-057-069-291200-
SOUTHEAST ARKANSAS
  
CITY           SKY/WX    TMP DP  RH WIND       PRES   REMARKS
PINE BLUFF     MOCLDY    40  34  79 E8        30.20F                  
STUTTGART      CLOUDY    39  30  70 SE8       30.22S                  
MONTICELLO     CLOUDY    42  34  73 E7        30.20S                  

$$



Return to Home page


Western Regional Climate Center, wrcc@dri.edu